GFSGL_925_rhum_000.txt.gz
RH
30 28 26 24 22 22 22 21 20 18 17 15 14 16 19 23 27 29 31 32 33 33 34 40 48 53 59 62 67 66 64 62 71 58 55 57 62 66 67 70 73 79 72
26 24 23 22 22 22 23 22 20 18 17 16 18 20 24 27 29 31 31 32 35 37 41 47 54 59 61 66 70 70 68 66 68 70 73 77 76 73 76 84 78 67 62
25 24 22 22 22 24 23 22 21 18 17 20 21 24 28 30 31 30 34 39 39 42 46 53 55 57 64 70 70 73 70 71 72 71 69 65 68 84 82 66 59 55 56
26 24 23 23 24 24 24 23 20 20 21 21 25 29 31 33 31 35 42 42 43 43 46 51 55 57 65 69 66 64 62 64 66 70 86 81 96 77 65 60 59 62 64
25 25 24 25 25 26 25 23 22 22 23 26 30 33 33 32 34 46 45 44 43 42 43 48 52 57 64 62 59 62 65 74 95 93 76 82 84 64 65 66 69 68 75
26 26 26 27 26 26 25 23 22 22 27 32 35 34 33 32 41 46 47 45 42 43 45 51 54 60 64 64 64 62 64 69 69 83 95 82 72 69 72 75 81 95 78
28 28 28 27 27 26 24 23 22 27 33 35 34 34 33 31 44 47 50 52 50 55 56 56 60 66 71 75 75 71 71 71 94 73 76 75 76 83 98 89 83 85 87
29 28 28 27 26 25 24 24 27 33 36 36 35 35 34 35 46 52 60 62 64 63 63 63 67 73 75 68 65 71 95 81 69 65 66 86 91 72 66 76 97 96 93
29 28 27 26 25 25 25 26 33 37 37 37 36 36 38 41 46 56 63 65 67 67 67 67 70 72 72 64 91 96 69 63 60 76 80 67 64 67 75 94 93 92 85
28 27 27 26 26 26 27 33 37 38 38 37 39 40 44 46 49 60 64 66 69 71 72 79 80 70 73 97 70 64 66 68 85 75 70 70 74 76 77 87 98 94 91
27 27 26 26 26 28 33 36 40 39 39 41 44 48 51 53 55 62 65 66 71 73 80 90 84 85 88 60 60 65 67 66 76 72 77 79 80 81 82 91 98 98 94
27 26 27 27 27 34 36 40 40 42 46 49 53 55 57 58 60 64 66 66 73 81 79 74 95 76 63 61 66 66 68 72 77 82 85 79 82 92 94 96 98 98 99
27 27 27 27 36 37 42 42 43 48 52 57 60 60 62 62 62 63 69 69 62 64 78 95 76 64 63 68 71 72 71 80 91 92 86 88 92 96 98 98 97 96 97
27 28 29 32 44 42 44 45 52 56 58 64 63 64 66 66 66 65 66 63 68 88 75 77 65 64 67 72 73 73 76 81 91 94 93 92 89 88 92 97 97 94 96
28 29 31 39 44 45 46 51 58 58 61 62 63 64 67 69 67 63 62 68 68 67 68 67 67 71 78 77 76 77 80 86 93 94 95 94 90 88 92 93 97 96 94
28 31 40 45 46 48 51 52 49 61 62 62 63 64 67 66 64 65 67 66 68 67 70 69 73 79 81 80 82 86 89 88 93 96 96 95 95 95 94 94 95 96 94
30 40 44 47 51 53 56 57 63 58 63 63 62 65 66 64 68 69 68 68 70 70 72 74 79 82 84 87 92 93 93 93 95 96 97 97 96 96 92 93 92 94 91
35 45 49 53 53 56 59 60 63 68 68 66 63 64 62 68 70 71 70 72 74 75 77 77 82 86 90 94 95 96 96 96 96 98 97 97 97 97 95 93 94 95 95
43 48 55 54 55 62 63 62 62 66 66 66 63 62 65 72 74 71 73 77 79 81 80 82 89 94 97 98 97 98 99 97 96 98 98 97 97 97 95 95 96 92 91
46 44 62 62 63 67 66 62 65 64 64 63 64 67 70 79 77 76 78 82 84 83 85 92 96 98 99 99 99 99 99 97 98 99 98 97 97 98 97 98 97 96 96
46 50 67 64 68 68 59 63 59 61 64 66 69 71 72 79 79 82 85 86 86 90 96 98 99 100 100 100 100 100 99 99 100 99 98 98 98 97 100 99 97 97 99
55 58 61 67 67 58 60 57 59 64 68 71 74 77 78 82 85 88 88 90 93 97 100 100 100 100 98 98 98 99 100 100 100 99 98 100 100 100 99 97 97 97 97
61 55 60 63 58 59 58 60 66 69 72 76 81 85 84 88 90 91 93 97 100 100 100 100 99 98 98 98 98 97 98 99 97 97 100 100 99 98 98 98 97 96 97
49 55 59 56 58 63 63 69 70 74 77 84 87 86 92 93 94 96 100 100 100 99 98 98 98 96 96 97 97 96 96 96 96 97 98 99 99 98 98 97 98 98 97
50 55 58 62 64 67 70 73 78 83 89 90 93 96 97 99 100 100 100 100 100 100 95 96 96 96 96 96 96 97 97 98 99 99 99 99 100 100 100 100 99 99 99
56 60 62 65 68 72 78 83 87 89 93 98 99 99 100 100 100 100 100 100 100 94 93 95 96 96 96 96 97 98 99 99 98 99 100 100 100 100 99 100 94 98 99

GFSGL_925_rhum_003.txt.gz
RH
37 32 28 26 25 23 23 22 22 20 18 16 16 19 22 26 28 29 28 30 36 38 40 43 47 51 54 56 58 69 76 77 80 73 71 72 75 73 70 70 76 94 79
30 27 26 24 23 23 23 23 21 20 18 18 20 23 27 29 30 30 32 39 41 43 43 45 48 51 56 58 61 71 76 77 81 88 75 64 63 66 72 79 88 70 62
27 25 24 23 23 24 24 23 22 20 20 21 24 29 31 32 31 30 43 44 44 44 43 45 47 54 57 58 64 69 74 77 72 71 71 70 77 82 75 90 64 60 60
25 24 24 23 24 26 25 25 22 21 22 25 30 33 32 32 30 44 48 48 46 45 44 46 50 55 60 65 67 67 73 71 72 78 87 89 73 87 85 66 60 62 67
26 25 25 25 26 27 27 24 22 22 26 32 34 32 32 31 34 50 52 53 55 54 56 56 56 61 65 62 62 65 63 67 78 97 76 90 80 65 65 67 72 75 86
26 27 26 27 28 28 26 23 23 26 33 35 34 34 33 32 40 53 58 64 63 63 63 63 63 64 65 61 62 62 65 70 75 92 96 76 68 70 71 83 93 84 83
28 28 29 28 29 27 25 24 25 33 36 36 35 35 34 36 51 54 60 66 64 63 63 63 64 66 67 72 73 78 92 98 79 76 70 71 74 84 98 93 91 94 86
30 30 30 29 27 26 25 26 33 37 37 37 36 37 39 42 54 56 62 65 64 64 62 64 68 72 78 72 92 94 82 69 65 64 68 84 89 73 70 78 93 97 94
32 31 29 28 26 27 28 34 37 38 38 37 39 40 46 48 53 61 65 64 65 67 69 72 75 84 76 88 76 70 68 68 64 79 80 72 67 69 76 93 94 92 84
31 29 28 27 28 29 33 38 39 39 39 41 41 46 50 54 56 65 66 66 70 72 76 81 85 75 74 78 63 67 75 73 97 91 72 73 78 81 78 83 97 94 92
29 29 28 29 30 34 37 39 40 40 42 44 49 52 57 58 59 67 68 67 69 74 71 68 76 85 67 64 62 70 74 86 85 78 83 84 81 77 82 92 98 98 94
29 29 29 30 34 35 36 40 42 46 48 54 60 62 61 61 63 69 70 67 66 63 76 81 95 77 67 65 69 72 73 76 80 83 88 81 84 91 93 96 99 98 98
29 29 30 34 37 38 42 43 44 49 57 64 67 65 67 67 67 70 73 69 64 74 80 74 80 69 67 70 75 74 74 81 85 93 87 90 92 94 94 95 96 96 96
30 30 31 31 41 44 45 46 52 59 64 69 69 69 71 72 72 69 71 68 83 76 75 77 68 67 70 75 78 77 80 83 88 92 92 93 91 89 90 92 96 95 97
29 29 31 40 44 46 48 53 58 61 65 66 67 67 71 74 72 67 66 79 67 72 69 71 70 74 81 81 81 82 84 88 91 94 95 95 92 90 92 91 97 96 93
27 31 43 46 48 50 54 54 52 65 67 66 65 67 69 70 68 68 74 68 70 71 74 73 79 82 85 86 88 90 91 91 96 98 98 97 96 96 95 93 93 94 94
30 42 47 50 52 54 60 62 65 46 53 61 64 67 68 67 72 73 71 70 74 74 77 80 83 87 90 92 94 96 96 96 98 99 100 98 96 97 93 94 93 93 90
38 54 51 52 55 61 65 64 60 68 73 65 55 67 66 73 75 74 73 77 78 81 82 83 88 92 94 96 97 97 97 98 98 100 97 97 98 98 95 94 94 95 95
45 47 56 57 60 69 64 55 61 63 66 66 66 67 70 78 80 74 76 82 85 86 86 88 94 97 98 98 99 100 100 98 97 98 98 97 97 98 95 95 96 92 92
46 49 70 62 62 63 58 59 64 62 64 67 70 73 75 84 85 80 84 88 88 89 92 96 98 99 100 100 100 100 99 99 100 100 98 98 98 98 97 97 98 97 96
49 53 66 55 60 63 55 64 59 64 68 71 75 77 76 81 83 87 89 90 92 95 98 100 100 100 100 100 100 100 100 100 100 98 98 97 98 97 98 100 100 98 98
57 49 49 58 61 53 62 61 62 66 72 77 80 84 81 84 89 92 92 94 97 100 100 100 99 100 98 98 98 100 100 100 100 99 99 98 98 100 100 100 98 97 97
54 43 50 55 53 62 63 60 68 71 78 81 86 86 85 90 93 94 96 100 100 100 96 100 98 97 97 98 97 97 97 97 96 98 99 100 100 99 98 98 98 98 99
44 48 54 56 59 67 63 71 72 78 81 86 87 88 94 95 97 100 100 100 99 95 92 97 97 97 96 96 97 97 97 96 97 97 99 99 98 98 98 98 98 97 95
48 54 58 61 65 69 72 76 83 88 92 91 93 98 98 100 100 100 100 98 98 94 90 95 96 96 97 96 97 98 97 98 100 99 99 99 98 99 98 99 98 97 95
53 57 63 67 68 75 82 89 90 91 97 97 100 100 100 100 100 100 97 99 95 88 90 95 96 97 96 97 98 98 99 100 98 98 99 100 98 98 98 98 98 97 85

GFSGL_925_rhum_006.txt.gz
RH
46 44 40 33 29 25 24 23 22 21 20 18 18 20 24 28 29 28 28 33 37 40 42 43 43 44 48 53 56 58 65 76 88 76 71 74 72 64 65 69 72 75 81
42 36 30 27 25 24 23 23 22 21 19 18 20 25 29 30 29 28 33 40 46 46 45 45 45 46 52 55 59 63 70 72 84 84 84 72 67 70 75 85 80 84 86
32 29 26 24 24 24 24 24 23 21 20 21 26 30 30 29 28 29 45 50 50 51 51 51 53 56 58 60 65 73 73 77 80 81 74 72 74 86 80 86 81 71 62
28 26 25 24 24 25 25 25 22 21 22 28 32 32 31 30 29 36 52 55 59 61 60 59 58 61 67 69 70 65 66 67 67 71 75 82 91 91 73 64 63 66 70
26 25 25 26 26 27 27 24 23 24 30 34 33 32 32 32 32 53 57 59 65 65 58 56 58 66 70 65 63 64 68 73 83 96 94 89 75 64 66 68 73 76 80
26 26 27 27 29 28 26 24 24 30 34 35 34 34 34 34 36 57 59 61 67 64 63 61 62 64 67 71 70 72 75 99 94 80 80 70 67 69 71 83 94 84 85
28 28 29 30 30 28 26 26 29 33 36 36 36 36 35 37 50 60 61 64 66 64 65 66 69 70 73 77 76 81 96 78 70 66 69 71 73 84 98 94 91 92 86
30 31 31 30 29 28 26 29 33 36 36 36 37 37 38 40 60 61 65 67 67 66 67 68 74 76 80 78 88 97 75 72 70 68 72 88 95 78 75 80 94 98 91
32 32 31 29 28 28 29 33 36 36 37 38 39 39 44 49 55 66 69 69 69 68 68 78 81 79 78 78 87 76 72 74 66 81 89 76 73 76 81 91 94 93 83
33 31 30 28 28 29 34 35 37 38 40 40 37 43 50 54 53 70 70 71 73 73 76 69 73 74 72 87 72 69 77 74 95 94 74 74 81 84 80 81 91 95 91
31 30 29 29 31 34 35 37 39 40 40 40 48 49 52 57 61 71 71 71 71 72 69 81 85 80 78 66 64 71 77 88 84 78 83 84 84 81 86 94 98 99 95
30 30 30 33 34 34 36 39 41 42 44 50 58 58 60 62 67 73 73 71 68 70 83 83 81 77 70 67 72 76 77 77 81 83 87 84 86 94 95 97 98 98 100
30 30 34 36 34 36 38 42 45 48 52 63 70 70 69 71 68 73 77 75 70 80 76 75 82 73 69 74 78 79 78 84 86 93 89 90 93 95 96 96 95 95 95
31 32 33 40 36 41 44 46 48 52 59 68 72 73 73 74 75 73 73 71 93 73 79 78 75 70 74 78 81 82 84 86 90 94 94 94 94 91 92 94 98 96 97
30 30 35 38 42 46 47 48 50 54 67 68 68 68 72 75 73 69 68 91 69 75 71 76 74 80 83 84 84 85 86 89 93 96 97 97 94 92 93 93 97 96 94
29 34 45 45 48 46 47 49 48 55 67 66 65 67 70 71 71 72 78 71 72 74 78 78 84 86 89 89 90 91 93 93 97 99 100 98 97 97 95 95 95 96 94
30 41 47 47 46 50 57 62 64 42 52 61 64 68 70 71 77 75 75 73 78 78 82 85 88 91 93 95 96 97 96 97 99 100 100 99 97 97 95 95 95 95 92
46 54 46 48 51 58 66 66 58 66 68 58 48 68 69 77 79 79 76 80 82 85 87 88 93 95 97 97 98 98 98 99 99 100 98 97 98 98 96 94 95 96 95
44 46 54 55 55 71 67 55 60 59 60 64 66 68 72 83 81 79 78 86 90 90 90 93 97 100 100 100 100 100 100 98 98 98 98 98 98 98 96 96 97 92 92
45 50 69 58 57 62 60 56 64 59 64 68 72 76 79 86 86 81 86 91 92 93 95 99 100 100 100 100 100 100 99 99 99 99 98 98 98 99 97 97 97 96 96
48 50 57 50 56 60 51 65 61 64 68 72 75 79 80 83 83 88 92 93 94 97 100 100 100 100 99 99 100 100 100 100 99 98 99 98 99 98 100 100 100 99 98
56 48 46 52 53 50 64 67 60 68 72 78 82 85 83 85 89 94 94 96 98 100 99 100 100 99 98 98 98 100 100 100 98 98 98 99 98 98 100 100 100 98 97
52 42 46 50 52 63 63 59 69 73 80 83 87 88 87 89 94 95 98 100 99 94 88 94 98 96 97 98 97 96 96 97 96 96 98 100 98 98 98 98 99 98 98
44 44 50 54 57 69 63 74 75 80 84 90 90 90 94 98 99 100 100 98 95 87 87 92 96 98 98 97 97 97 96 97 96 97 99 99 99 99 97 100 100 99 98
44 48 52 61 63 66 72 77 85 91 92 94 95 99 100 100 100 100 100 96 92 89 80 88 95 97 96 96 97 98 97 97 99 99 99 99 98 99 99 100 100 92 86
47 53 62 63 64 71 82 90 94 94 98 97 100 97 98 100 100 100 96 93 90 85 82 91 95 97 97 97 97 98 98 99 99 99 100 100 99 98 100 100 97 92 83

GFSGL_925_rhum_009.txt.gz
RH
53 46 37 33 32 31 27 24 24 22 21 19 19 20 23 26 27 26 26 32 40 44 46 51 52 53 54 57 61 64 65 65 63 64 63 65 64 62 58 62 68 72 74
48 44 40 36 32 27 24 23 23 22 21 20 21 24 28 28 28 28 32 42 48 51 54 57 59 57 60 61 64 66 66 68 72 71 70 67 60 62 66 76 78 68 62
44 40 35 29 25 24 24 23 23 22 22 23 26 28 29 29 29 29 41 50 55 59 62 62 58 60 60 62 68 70 69 70 72 75 69 64 69 78 83 67 60 54 55
36 31 27 25 24 25 25 25 24 23 24 28 30 30 30 31 31 33 51 57 60 63 65 58 59 62 64 72 72 70 69 64 68 70 80 87 71 66 63 58 58 62 64
30 27 26 26 26 27 27 25 25 26 29 31 32 32 32 32 33 57 61 60 62 65 66 60 63 69 74 72 69 69 69 74 91 94 82 73 67 58 60 64 69 75 74
28 27 27 28 29 28 27 26 27 30 32 33 33 33 34 34 36 62 64 64 66 69 68 66 67 67 75 76 74 73 76 94 97 86 78 63 58 62 67 80 84 81 80
28 29 30 31 30 28 27 27 30 32 34 34 34 35 36 36 56 63 64 66 70 70 70 71 72 73 75 80 80 83 97 83 74 71 64 63 68 78 98 92 85 82 80
32 32 32 31 29 28 27 30 32 33 34 34 37 38 38 39 59 65 69 71 72 72 70 71 76 77 82 82 80 99 86 74 68 69 70 81 94 81 79 82 90 94 86
34 34 32 30 28 28 30 33 34 34 35 38 39 40 41 45 54 70 72 71 72 73 72 75 78 76 74 67 90 86 68 66 65 75 88 81 74 77 82 89 90 91 80
36 33 31 28 28 30 33 33 34 36 39 38 38 44 47 50 51 73 72 72 72 70 74 74 77 75 69 79 72 68 73 71 90 90 71 70 74 76 82 80 90 94 90
32 30 29 29 31 32 32 33 37 41 39 37 43 44 49 58 62 73 74 70 72 74 70 74 74 74 84 68 67 70 74 88 77 74 74 75 76 74 77 88 95 98 95
30 30 33 33 32 32 33 39 42 42 40 44 53 60 65 61 67 74 76 72 71 72 83 73 76 80 71 69 72 78 78 80 76 77 78 77 80 91 94 96 99 100 100
32 34 34 33 34 37 40 43 44 43 47 64 68 67 67 67 70 73 78 75 72 80 73 74 78 76 70 73 78 81 82 81 80 83 82 89 90 94 99 98 96 97 98
35 37 38 35 39 43 44 45 45 51 60 70 69 67 70 72 73 74 74 73 89 73 76 80 77 72 75 79 80 78 80 80 86 89 89 90 88 90 92 93 96 95 96
33 34 38 40 44 44 44 47 55 53 65 67 68 69 70 70 70 71 70 86 72 74 74 76 69 73 76 78 79 81 82 83 89 92 94 94 91 89 92 92 95 95 93
35 43 43 44 45 45 48 46 44 48 65 64 67 69 70 72 74 74 76 73 74 77 77 72 76 78 81 83 86 88 88 91 94 98 98 98 96 96 94 94 94 94 93
34 43 50 46 47 49 55 57 62 39 44 57 65 68 73 73 79 78 76 76 80 80 76 79 82 85 89 93 96 96 95 96 99 100 100 99 98 96 94 94 93 93 91
52 48 47 48 48 54 60 60 55 68 62 57 39 69 70 78 83 79 78 81 76 80 83 83 88 91 95 98 98 97 97 98 99 100 98 97 98 97 95 94 94 94 93
46 54 52 49 46 60 59 53 58 64 62 63 64 62 68 83 84 79 79 82 85 84 85 88 92 97 100 100 100 100 100 100 98 98 99 98 98 98 95 95 96 92 92
48 66 59 46 48 53 54 53 66 62 64 66 69 73 79 85 84 76 80 86 88 88 89 95 98 100 100 100 100 100 100 100 99 99 99 98 98 98 97 96 96 95 93
48 46 51 43 49 51 51 68 65 64 69 72 75 79 82 82 81 82 87 89 89 92 96 99 100 100 100 100 100 100 100 100 99 98 100 99 99 97 98 99 98 98 98
51 41 41 47 49 51 67 61 58 69 75 80 81 84 85 83 84 88 90 91 93 96 100 100 100 100 98 98 98 100 100 100 100 99 100 100 98 98 98 99 99 99 98
46 40 45 48 50 64 57 58 70 78 82 84 84 86 84 85 90 94 95 96 100 95 91 90 94 95 96 98 99 97 98 98 97 98 99 100 100 99 99 99 99 98 96
42 44 48 51 55 68 61 76 77 81 84 86 87 87 90 94 96 97 99 97 94 90 86 85 93 96 96 97 97 98 98 97 97 96 98 99 99 98 98 99 100 96 95
43 46 52 58 60 64 69 78 87 91 91 91 92 96 97 99 100 100 96 93 91 90 83 85 95 96 96 97 98 100 98 100 99 99 99 99 98 98 98 99 99 91 85
47 53 58 59 62 70 83 93 94 94 98 97 100 99 99 100 100 95 91 92 95 92 85 88 94 97 97 99 100 99 100 100 100 100 100 99 99 98 99 98 96 90 85

GFSGL_925_rhum_015.txt.gz
RH
58 53 51 48 45 37 34 32 32 29 30 29 30 30 29 30 30 29 29 32 34 37 40 43 47 48 46 40 40 40 42 44 48 46 46 47 49 49 48 52 59 56 55
54 50 48 47 38 36 33 30 28 29 28 28 28 28 29 30 29 28 28 31 35 38 41 45 49 44 43 40 40 40 42 44 50 52 53 53 52 50 55 67 62 53 52
53 50 43 38 35 32 29 28 28 28 29 29 30 30 30 33 31 30 29 32 36 41 44 46 47 48 46 42 44 47 51 53 53 54 55 54 57 63 78 61 54 50 46
50 47 41 36 31 29 27 28 29 30 31 32 32 33 34 32 33 33 38 42 45 46 48 48 48 50 49 50 60 62 59 60 60 61 65 72 73 86 60 53 48 50 56
46 44 40 33 30 30 30 30 31 32 33 34 34 34 35 34 30 41 52 51 48 45 45 45 45 46 56 63 67 68 68 67 71 83 81 84 74 60 56 51 56 64 67
47 44 35 32 32 33 32 34 36 36 36 36 35 34 36 33 36 52 68 59 50 46 46 45 49 55 52 56 61 62 64 67 83 86 96 73 68 58 54 66 75 86 87
50 43 39 36 36 36 37 38 38 37 36 35 35 34 34 37 39 62 67 63 54 48 50 54 55 52 55 58 60 62 71 74 80 72 66 59 58 61 71 82 89 83 78
50 46 38 39 39 38 37 37 36 35 35 34 34 35 38 39 39 58 69 63 49 48 49 52 52 53 56 60 68 82 85 82 66 55 56 60 66 83 98 97 81 82 81
46 40 39 38 35 37 36 36 35 34 34 33 36 38 36 35 42 63 72 60 50 49 48 48 51 55 58 61 67 87 82 63 58 56 62 72 72 66 65 68 81 86 84
52 37 34 35 37 38 38 36 35 36 36 38 39 38 38 41 42 60 68 62 56 52 52 52 52 57 59 62 74 71 71 66 64 78 79 68 61 60 62 63 72 96 92
33 34 36 37 36 36 35 35 34 38 38 35 35 34 36 39 45 54 65 71 64 64 61 60 64 58 63 66 67 70 68 68 82 80 68 62 63 64 67 77 84 95 96
37 37 37 36 34 34 35 36 39 38 35 32 32 32 34 36 41 48 62 69 66 63 65 71 64 65 66 67 68 66 71 75 74 67 67 69 73 81 86 88 89 94 98
38 38 37 36 36 35 38 40 39 37 34 34 36 37 36 38 40 46 55 61 62 65 70 64 67 66 65 61 60 67 68 66 68 72 79 82 83 83 86 90 89 89 89
38 38 37 36 36 41 42 41 38 36 34 37 36 38 39 40 42 48 62 68 65 73 69 72 68 60 52 56 59 62 64 68 76 88 88 87 87 87 87 88 94 92 95
38 38 40 40 38 40 42 42 42 41 45 49 46 49 48 48 51 68 72 72 74 74 70 74 61 52 57 59 63 67 71 77 89 91 95 95 92 90 92 91 93 96 95
35 36 38 41 42 42 40 38 40 35 32 44 64 65 61 62 66 74 75 74 74 74 75 64 55 61 65 67 73 78 84 88 93 96 97 97 96 96 94 95 93 94 94
36 41 46 42 40 39 40 38 34 34 38 47 48 51 59 68 72 78 77 76 76 67 61 59 64 70 72 75 82 88 93 94 96 98 99 98 98 97 93 94 94 94 91
45 45 44 44 41 42 42 40 35 34 36 33 34 42 50 58 69 76 74 71 58 60 63 64 70 73 76 82 90 96 98 97 97 98 98 98 98 98 96 94 94 94 94
47 49 47 44 46 43 41 38 36 38 37 34 35 39 46 57 69 65 62 60 63 64 66 67 72 78 83 90 97 99 100 99 98 98 98 98 98 97 96 95 95 91 90
64 53 45 39 39 38 37 36 39 38 36 37 41 45 52 68 70 64 60 63 65 67 68 74 80 83 89 97 99 100 100 100 98 99 98 98 98 98 97 96 96 96 95
48 50 38 38 38 39 39 42 42 39 42 46 49 53 64 74 67 60 63 66 68 72 75 80 86 92 98 100 100 100 100 100 100 99 99 98 98 97 97 98 98 98 98
43 41 41 40 40 38 43 48 43 47 50 52 55 58 63 61 60 62 66 70 73 77 85 93 96 99 98 97 98 99 100 100 100 100 100 98 98 99 100 100 99 98 98
40 39 39 38 42 46 44 44 48 51 56 60 61 60 59 58 60 66 71 78 89 94 96 98 99 96 96 97 97 97 97 97 98 97 98 100 100 99 98 99 99 98 97
41 41 40 40 45 52 47 50 55 58 61 62 63 64 63 65 71 76 88 94 97 97 98 99 98 96 96 96 97 97 98 97 96 96 98 98 99 99 100 99 97 98 96
44 42 43 45 49 51 53 55 59 62 65 67 73 76 78 81 87 91 96 97 97 100 100 97 96 96 96 96 97 98 97 98 99 100 100 96 99 100 100 97 95 97 92
47 48 49 50 52 56 59 64 68 69 76 88 90 93 93 92 93 96 98 96 96 96 96 97 97 98 98 97 94 96 98 99 99 91 84 84 93 100 98 96 93 96 96

GFSGL_925_rhum_021.txt.gz
RH
77 76 78 75 72 68 62 50 49 40 38 36 38 44 34 31 30 31 31 30 31 32 35 38 40 43 45 47 46 45 44 44 62 57 58 62 65 62 62 59 60 68 74
73 72 72 67 64 59 52 46 42 38 38 38 36 31 30 30 30 29 29 29 30 33 35 39 42 45 47 48 49 49 48 51 60 68 71 72 71 67 70 75 77 81 74
69 67 59 57 55 45 41 38 39 42 41 45 31 30 30 29 29 28 28 28 30 36 42 46 47 49 50 49 50 52 52 57 64 69 77 75 76 78 83 90 87 73 69
67 61 57 49 42 40 38 38 39 36 37 31 31 30 30 30 30 30 30 34 42 47 48 47 46 47 47 50 54 58 61 64 67 72 79 84 81 82 89 77 75 70 66
61 56 53 44 44 41 38 35 35 35 35 31 30 31 31 31 31 32 29 35 38 37 38 44 48 48 53 59 60 60 62 64 68 75 89 87 89 78 73 72 71 69 71
57 52 47 46 45 48 48 52 54 34 31 34 32 31 32 32 31 33 40 38 31 35 46 48 49 50 50 60 59 58 61 64 71 83 95 84 81 76 71 70 75 81 86
47 48 55 61 67 62 53 47 51 42 35 34 34 32 32 34 38 42 50 39 36 45 51 52 51 51 54 51 54 62 62 68 72 76 84 83 80 72 70 84 96 98 89
76 78 78 76 72 62 69 74 71 65 53 50 34 33 37 51 44 46 58 44 43 50 56 57 57 57 60 64 62 64 66 67 74 78 77 74 72 83 96 88 81 81 83
91 92 94 86 91 94 94 84 70 74 52 33 35 38 36 44 45 48 54 55 53 57 60 60 65 65 67 66 65 66 69 75 71 73 74 79 81 75 74 77 82 86 86
100 100 96 95 92 83 74 72 42 33 35 35 37 36 35 35 44 49 58 61 62 65 68 67 66 70 68 68 68 71 74 70 66 74 83 70 66 68 78 76 78 93 94
95 92 93 88 78 67 44 35 35 32 35 34 33 34 36 38 40 47 51 58 62 70 69 68 70 75 71 70 69 69 67 65 82 69 67 71 75 80 84 84 89 97 98
92 86 66 46 37 34 35 35 36 34 33 33 33 35 37 38 41 44 50 58 66 71 72 71 74 76 74 72 69 64 66 72 66 71 78 83 89 92 89 94 93 94 94
40 37 36 35 34 33 35 36 34 33 34 36 39 40 41 42 44 51 66 67 75 74 74 78 79 79 72 67 65 68 70 69 74 84 88 91 95 95 94 99 90 93 94
37 36 37 38 40 39 37 35 33 34 37 40 42 45 44 47 47 53 71 75 76 75 75 82 79 68 66 67 70 71 73 78 86 90 94 96 98 98 96 97 100 99 99
35 38 41 40 39 39 37 35 33 35 29 31 43 47 54 61 65 72 75 76 75 77 74 71 62 64 68 75 78 80 81 86 93 97 100 99 99 97 98 97 99 98 97
40 40 40 40 40 38 37 41 45 40 41 44 46 51 50 56 62 67 72 73 73 76 68 64 67 69 75 79 84 87 88 92 97 100 100 100 100 100 99 98 97 98 96
40 43 43 41 40 38 38 36 34 33 37 42 44 44 48 53 60 70 73 71 73 67 66 69 71 72 78 84 90 92 96 96 100 100 100 100 100 100 95 97 96 96 93
43 41 40 41 40 39 36 35 34 38 40 36 36 48 52 59 67 77 75 68 63 67 70 73 74 76 83 88 89 93 98 100 100 100 100 99 99 99 98 96 95 95 95
43 42 40 34 36 35 34 34 38 41 38 40 44 48 53 64 74 71 66 64 67 72 74 76 77 80 86 87 89 95 100 100 100 100 99 100 98 98 96 97 96 93 93
52 45 32 31 32 33 34 38 43 41 42 48 52 55 60 69 65 59 61 64 69 74 78 81 86 88 87 91 95 99 100 100 100 98 99 98 98 99 98 98 97 96 95
35 36 37 33 33 35 37 45 44 44 49 53 57 61 68 69 60 61 64 70 75 81 87 91 92 92 94 96 98 100 100 100 100 96 98 98 100 100 100 100 99 99 99
32 30 30 32 33 36 50 47 45 50 54 58 62 63 68 66 66 69 72 77 82 88 91 95 95 95 97 98 98 98 100 100 97 97 98 100 100 100 100 100 98 98 98
29 30 32 34 37 47 46 48 52 56 60 64 65 67 70 76 80 82 81 82 87 88 91 96 97 95 96 97 98 98 98 96 97 98 100 100 100 98 98 98 98 98 96
29 31 33 37 42 51 49 56 57 63 68 69 70 76 83 86 87 84 82 80 84 86 89 93 97 97 97 98 98 96 99 98 98 96 98 99 99 98 98 98 99 98 98
31 31 35 41 46 50 54 58 64 71 74 76 81 87 88 88 84 80 79 80 81 80 81 83 94 96 97 98 95 94 98 93 99 99 100 99 98 94 94 99 98 99 99
30 34 40 47 51 55 60 66 73 78 81 83 90 90 88 86 85 84 84 79 75 74 74 77 92 97 98 98 93 99 99 98 95 100 100 97 89 92 99 100 98 100 100

GFSGL_925_rhum_024.txt.gz
RH
57 97 94 90 88 88 85 78 67 57 51 45 46 47 41 51 44 34 33 32 31 32 33 36 38 40 42 45 47 46 47 48 66 56 57 58 64 67 66 59 65 72 65
71 92 91 90 90 87 80 72 61 51 48 49 47 45 49 41 52 51 40 31 31 32 34 36 38 42 45 47 49 50 50 50 56 70 69 68 72 72 71 74 76 67 76
86 86 87 87 85 78 69 62 52 49 48 47 45 47 52 38 35 35 30 30 31 32 36 41 46 49 50 51 50 51 51 54 59 69 77 74 76 73 79 84 84 79 72
82 82 80 80 71 64 57 54 51 51 50 50 48 51 56 51 31 30 30 32 36 41 44 47 47 47 48 48 54 59 61 65 65 68 76 80 81 83 83 85 77 74 73
76 74 66 59 52 50 49 50 55 58 60 67 82 70 55 44 41 32 34 33 35 36 35 38 43 49 54 61 60 62 63 62 63 68 82 88 90 79 81 79 82 76 76
68 62 58 54 56 61 63 61 61 63 67 63 53 51 38 38 38 34 35 34 27 28 38 43 47 49 51 62 63 59 59 64 68 77 84 92 87 84 81 83 82 88 88
75 67 72 73 72 72 69 67 66 69 70 66 64 47 42 57 60 45 37 32 32 38 47 52 54 55 55 56 59 66 66 69 72 72 80 85 87 82 80 86 97 98 90
93 100 93 85 80 76 80 83 79 69 64 66 58 65 70 68 66 68 39 40 41 46 56 59 60 63 65 69 69 68 68 69 71 75 80 78 77 90 98 90 81 86 88
98 95 90 83 90 92 97 94 93 93 96 96 88 70 54 59 50 52 47 52 49 54 64 67 72 71 73 70 68 70 79 73 72 71 76 81 83 79 73 80 87 91 87
100 100 100 100 100 100 97 95 96 95 77 46 40 36 34 37 59 55 57 57 57 64 70 68 69 75 72 71 72 74 75 70 66 80 82 68 60 62 78 81 84 95 95
100 99 100 99 96 96 96 88 58 44 38 37 35 38 38 38 42 48 51 54 60 72 72 70 70 76 78 74 72 72 70 67 76 73 65 65 70 79 84 86 89 100 99
96 93 86 77 65 50 39 38 36 35 34 35 37 39 40 42 52 54 69 69 69 74 75 74 73 89 79 74 73 71 71 75 69 69 80 86 88 89 87 90 88 92 96
58 52 46 39 36 35 34 36 35 34 35 38 40 42 44 42 40 42 57 71 78 77 77 80 85 82 75 72 71 73 78 69 76 88 94 94 96 95 92 93 92 92 97
39 37 36 35 36 37 36 34 33 36 39 41 41 41 40 40 42 63 74 76 74 74 80 89 80 70 68 68 68 67 72 78 88 91 95 98 100 98 99 98 100 100 100
37 38 41 41 39 38 37 35 32 30 30 33 38 40 46 51 60 68 72 74 73 78 90 69 60 65 70 72 74 75 78 83 92 95 100 100 98 98 100 99 100 100 98
40 41 41 40 39 39 39 52 53 52 48 48 54 56 50 55 60 66 73 74 82 75 74 64 69 72 76 81 85 85 83 91 95 100 100 100 100 100 100 99 98 98 96
41 45 44 40 37 35 34 32 32 39 45 49 49 50 52 58 65 74 77 76 73 70 67 70 74 76 78 81 84 88 93 94 97 100 100 100 100 100 97 99 98 97 94
41 40 39 39 38 34 34 33 34 38 38 34 38 57 59 64 72 78 72 68 60 66 71 75 78 79 82 86 89 94 97 96 100 100 100 99 99 100 99 97 97 97 96
40 40 39 34 34 34 34 34 40 40 39 43 48 49 55 73 77 67 65 61 67 72 74 79 83 86 88 92 96 98 98 99 100 99 98 98 97 99 98 98 98 95 95
41 37 34 34 34 32 33 39 41 41 46 51 54 57 63 73 65 58 59 65 72 76 81 89 90 94 97 99 99 98 97 99 99 100 97 97 97 98 97 98 98 99 98
44 41 33 32 32 32 37 45 44 46 52 55 59 63 71 74 64 64 68 71 77 83 90 94 96 98 98 98 98 98 100 99 99 98 97 98 97 99 100 100 100 100 99
31 29 30 30 31 38 51 45 47 52 56 61 64 65 71 70 73 76 77 77 80 86 91 96 97 97 98 99 98 97 98 98 96 98 97 99 100 100 100 100 100 99 98
27 29 30 32 35 49 45 48 53 56 62 67 68 69 74 80 83 82 82 79 79 83 85 87 87 92 95 96 97 98 97 96 98 98 98 100 100 98 98 99 100 99 97
27 29 30 33 44 48 48 56 56 63 72 72 74 78 84 86 84 83 84 79 77 77 76 76 76 88 96 97 97 92 94 98 98 95 98 98 99 99 99 100 100 99 99
28 27 30 38 44 49 54 57 63 71 77 80 85 90 87 83 82 81 81 79 74 70 68 68 69 86 96 98 96 96 98 100 100 98 99 99 99 97 100 100 100 98 99
26 29 36 45 51 55 60 70 78 82 84 87 90 85 83 83 85 83 81 77 70 64 63 61 71 88 94 97 94 98 100 100 99 100 100 99 99 98 100 100 99 100 99

GFSGL_925_rhum_027.txt.gz
RH
43 49 66 79 90 95 92 89 84 78 76 74 63 56 50 49 43 41 38 38 48 44 33 34 35 36 38 43 45 47 47 49 66 56 53 51 62 64 65 64 61 61 62
55 60 90 97 98 99 96 88 81 77 74 70 63 57 52 46 45 48 64 41 40 41 46 47 37 39 42 46 48 48 50 51 57 65 60 64 68 67 71 72 64 64 70
65 80 99 100 100 98 94 87 78 73 68 64 57 55 53 50 56 58 73 74 59 48 38 35 38 42 47 49 51 52 51 52 55 67 76 72 72 74 77 74 78 79 72
84 96 100 100 98 95 88 77 69 66 62 60 60 62 57 61 69 74 68 47 47 37 39 43 47 48 47 48 49 54 60 63 65 69 72 73 76 80 84 82 82 78 80
83 86 92 90 86 79 70 67 67 66 65 61 57 59 61 65 66 60 51 48 45 42 41 40 42 46 52 66 64 60 64 65 63 66 78 79 87 88 85 81 86 86 86
71 70 70 67 65 68 68 72 71 73 69 62 70 77 85 88 86 82 66 42 34 34 38 39 45 48 50 54 68 70 64 63 68 77 80 92 91 84 84 88 90 96 87
75 75 80 81 79 78 78 76 76 78 84 85 83 78 81 93 89 55 45 49 33 36 42 47 51 55 56 58 61 71 71 72 73 75 79 79 83 81 79 89 98 100 90
98 94 90 92 91 81 84 93 92 89 88 86 88 95 97 96 94 98 69 38 40 43 50 56 64 66 66 74 74 71 71 74 76 76 78 78 76 81 96 98 92 85 89
100 100 99 94 100 100 100 97 98 96 97 97 96 97 99 99 98 94 46 49 49 53 62 67 72 73 74 75 71 73 77 76 73 72 75 80 85 81 74 79 86 95 90
100 100 100 100 100 100 99 100 100 98 99 100 98 80 92 89 70 64 58 54 56 61 69 71 64 74 75 76 74 75 76 73 68 76 79 73 62 61 74 80 85 96 97
100 100 100 100 99 100 100 100 99 95 68 50 45 48 39 46 52 51 53 57 62 73 74 71 68 79 83 79 74 74 75 71 76 79 70 64 69 75 82 83 89 99 100
100 99 100 99 100 99 86 63 47 42 39 38 40 42 44 46 63 61 73 68 70 78 77 75 75 90 84 78 76 74 73 78 77 68 79 85 87 85 82 86 85 87 95
80 75 72 54 43 39 37 37 36 35 36 40 41 42 44 42 39 39 58 76 80 77 76 81 85 84 79 72 70 75 80 70 75 87 95 93 91 92 88 86 86 91 96
43 40 38 37 37 36 36 36 36 37 40 42 42 40 38 40 46 66 73 74 71 74 81 92 80 71 66 69 65 60 68 75 89 92 92 95 97 97 95 96 99 100 100
40 42 41 39 38 37 37 33 28 30 29 34 39 42 48 50 59 66 70 74 75 82 89 75 64 64 69 68 67 70 74 81 90 91 97 100 100 100 99 95 100 100 99
42 40 40 39 38 40 46 56 58 61 62 61 56 58 52 55 62 69 76 78 81 77 77 65 69 73 76 76 80 81 83 89 92 96 100 100 100 100 100 100 100 100 99
39 42 42 39 36 35 35 36 34 46 52 51 55 57 59 63 67 75 79 76 72 71 68 69 74 77 78 82 86 91 94 92 95 95 100 99 100 98 99 100 100 100 97
41 42 40 39 34 33 32 32 32 35 34 33 38 61 62 69 75 80 72 69 54 61 69 73 79 83 88 93 95 97 98 96 95 98 99 97 96 98 99 99 99 98 97
41 41 39 34 33 32 31 32 38 38 38 42 46 47 55 77 79 70 66 56 66 71 74 81 88 93 96 98 99 99 98 96 100 97 95 96 97 98 98 99 100 98 96
40 36 31 33 32 31 32 38 40 40 45 50 53 56 61 75 72 62 61 65 69 75 80 90 93 96 98 98 98 98 96 96 97 98 96 96 97 98 99 100 100 98 97
41 39 30 30 31 31 36 43 42 45 50 55 58 62 71 76 69 69 72 73 76 79 85 91 93 94 95 97 97 97 98 98 97 97 97 98 98 100 100 100 100 100 100
36 36 31 30 31 37 47 43 46 51 56 61 65 66 75 72 73 77 77 76 77 77 83 88 86 84 86 96 98 97 97 96 94 96 98 99 100 100 100 100 100 99 98
29 29 31 32 34 50 44 46 52 56 62 68 70 71 73 77 80 79 78 78 76 72 76 78 77 74 77 91 98 98 97 96 96 99 98 100 100 100 99 98 99 98 97
29 29 29 32 39 46 45 54 56 62 71 73 74 76 79 82 79 76 77 75 70 65 66 68 69 68 74 90 97 96 97 97 97 96 97 98 99 99 99 100 99 99 100
28 28 29 33 39 45 51 56 62 70 76 78 79 81 80 79 77 76 76 73 69 65 59 60 61 62 80 91 96 94 94 97 100 100 98 99 100 99 100 100 100 99 99
27 28 33 40 46 51 57 65 72 75 75 75 80 80 81 81 78 79 78 75 69 61 58 56 56 71 88 92 96 92 96 98 99 99 99 99 99 99 100 100 98 99 99

GFSGL_925_rhum_030.txt.gz
RH
49 53 60 60 71 74 88 96 98 96 93 88 86 82 78 70 58 50 46 41 41 43 43 42 40 39 41 42 41 43 46 50 64 53 52 48 51 58 59 62 65 61 55
58 50 58 84 92 95 100 100 100 96 90 86 84 79 72 62 53 48 44 47 49 56 66 66 57 42 40 43 46 49 50 51 56 64 57 56 62 62 66 71 68 62 65
71 63 74 99 97 100 100 99 92 87 84 82 79 72 66 59 53 46 48 61 63 67 73 77 63 50 44 44 49 51 53 53 55 64 68 69 71 68 72 76 74 71 68
76 79 92 99 99 99 99 92 84 80 78 77 70 66 64 59 51 58 66 80 86 76 70 66 67 56 56 55 52 49 52 59 62 68 71 72 73 74 82 85 85 80 80
74 76 89 95 97 93 85 78 76 73 74 70 72 67 63 66 76 84 88 83 85 85 90 76 57 49 46 55 60 66 63 65 68 66 74 78 82 85 87 80 88 87 89
75 75 76 80 79 78 77 78 76 77 78 77 76 78 81 83 88 84 72 69 76 72 59 88 46 43 44 50 62 70 71 69 70 78 78 86 90 81 81 86 91 96 88
83 81 79 80 82 83 84 87 92 92 90 92 91 85 97 100 98 91 89 88 94 98 71 42 47 50 51 50 53 71 72 74 76 79 85 82 82 78 79 86 96 100 98
93 92 84 87 91 89 89 93 94 95 96 96 97 97 96 99 99 99 99 95 69 46 51 51 57 58 57 70 76 75 72 74 77 78 80 80 77 81 90 96 87 87 91
100 100 100 100 100 100 100 100 100 98 99 99 99 100 99 99 99 93 48 46 48 54 59 66 68 64 60 78 74 76 85 79 74 75 78 84 86 82 76 80 86 95 91
100 100 100 99 100 100 99 100 100 100 100 100 99 99 99 98 98 76 52 52 55 60 68 70 64 74 75 77 77 92 79 74 71 80 81 76 62 60 68 79 86 96 98
100 100 100 100 100 100 100 100 100 100 99 98 97 96 90 74 56 56 68 61 64 72 76 71 67 77 83 85 82 79 76 74 79 82 72 61 66 71 75 81 87 98 100
100 99 100 100 100 100 99 99 96 72 55 56 46 47 51 57 55 74 72 69 76 78 74 74 80 93 89 82 77 75 76 80 77 67 74 79 82 80 79 82 83 86 94
91 92 96 88 71 52 42 41 40 38 38 42 43 46 46 42 38 52 60 76 74 78 79 86 96 86 78 65 71 76 79 66 73 86 93 91 89 85 83 81 81 84 88
45 41 40 39 39 38 38 37 37 39 41 43 43 40 39 40 45 63 70 73 76 80 86 85 78 70 63 67 59 58 66 75 90 92 92 92 88 89 89 90 94 93 100
40 41 40 38 37 35 33 30 29 33 31 33 35 36 42 48 62 68 74 77 77 80 83 78 63 63 64 63 64 68 75 81 87 91 94 96 95 95 92 92 97 99 100
40 40 40 40 41 42 48 62 66 65 65 55 54 59 54 64 66 72 79 80 82 74 72 64 69 71 73 77 80 84 85 88 92 96 95 95 96 97 98 96 100 100 100
40 42 42 40 41 43 47 44 46 58 56 60 63 65 65 67 70 78 81 77 71 67 62 67 71 75 81 87 92 95 94 92 95 94 95 94 95 96 100 98 97 100 99
43 41 39 36 33 32 31 32 33 32 31 31 37 64 67 75 78 82 75 64 50 59 67 72 79 87 93 96 98 98 97 95 94 95 95 95 96 99 99 100 98 98 98
40 40 37 33 33 30 29 30 33 34 37 42 46 46 52 76 79 74 69 56 63 66 71 77 86 91 95 98 98 98 99 96 99 98 96 96 94 98 97 99 100 96 98
40 36 34 32 29 28 30 34 36 39 43 48 52 54 57 75 75 68 63 66 69 71 75 82 84 89 93 95 97 98 97 94 94 96 97 98 97 97 99 99 100 99 98
43 39 31 29 29 29 32 40 41 43 48 53 56 59 73 79 76 69 72 73 74 73 74 78 81 82 83 84 89 97 97 95 95 94 96 97 99 99 100 100 100 100 99
38 35 30 28 28 32 42 41 44 50 55 59 62 64 77 75 70 73 76 74 72 72 72 76 77 76 76 76 80 96 98 96 95 96 96 97 99 100 100 100 100 100 99
33 28 28 29 30 45 43 43 50 54 59 65 69 70 70 72 75 76 74 73 73 72 70 72 69 66 67 67 74 93 98 96 97 97 97 97 100 99 100 100 99 99 97
28 27 28 29 32 43 43 49 54 58 66 70 72 72 74 77 77 74 73 74 73 70 68 65 62 60 62 62 78 93 97 96 97 96 95 98 98 99 100 100 100 99 100
27 28 28 29 34 40 46 51 56 63 69 72 73 73 76 77 75 72 72 72 70 68 63 60 57 55 58 71 88 96 97 93 96 98 97 98 100 99 100 100 99 98 99
28 28 28 32 38 46 51 55 62 67 69 72 76 79 81 81 81 80 78 74 70 66 62 56 53 57 72 88 94 98 96 95 99 96 98 98 100 100 100 100 99 98 99

GFSGL_925_rhum_033.txt.gz
RH
63 63 69 66 59 77 94 94 99 100 100 100 98 95 94 93 90 84 78 73 71 51 54 50 51 51 49 52 49 45 42 42 49 52 47 46 45 46 52 56 61 68 70
71 67 69 81 94 99 99 99 98 99 100 99 96 94 92 90 85 84 87 72 58 52 52 56 66 63 71 73 64 64 63 60 59 55 59 55 51 56 59 66 70 71 71
79 80 74 83 96 99 99 99 99 99 97 94 92 90 86 81 76 68 60 57 54 56 64 77 83 79 79 78 89 89 91 87 59 74 58 64 70 63 74 79 83 79 75
81 88 92 88 94 96 98 95 93 92 90 87 84 80 75 71 65 60 56 54 68 79 84 86 86 84 82 88 96 97 93 61 62 79 73 76 76 76 84 84 77 71 68
76 82 89 93 94 91 91 89 86 86 82 79 76 75 75 70 68 67 69 80 86 89 91 94 98 96 96 96 93 88 92 93 90 88 76 78 79 75 74 74 76 73 79
81 80 80 82 84 83 83 84 84 84 84 84 84 84 85 88 84 84 87 92 92 94 95 93 97 98 95 95 100 100 98 93 79 86 84 76 76 81 78 77 80 86 81
88 87 87 86 86 89 92 91 92 94 91 98 100 100 100 100 95 95 93 88 96 99 99 98 91 81 66 54 52 74 80 76 78 79 85 82 80 77 83 93 93 94 88
100 100 99 100 99 98 98 100 100 100 100 100 100 100 99 100 99 99 99 99 98 95 65 55 57 59 53 69 72 75 74 75 76 78 86 83 82 82 90 99 94 83 81
100 100 100 99 100 100 100 100 100 100 100 100 100 99 98 99 99 100 96 66 53 58 66 77 73 64 51 76 76 75 83 85 77 74 81 86 87 84 80 80 88 85 83
100 100 100 100 100 99 100 100 100 99 100 100 100 99 99 98 82 50 49 51 58 65 67 68 57 67 75 78 81 98 86 80 72 79 80 77 63 60 68 85 91 98 94
100 100 99 100 100 100 100 100 99 99 99 98 98 97 94 90 94 88 63 58 61 68 71 65 62 79 89 91 85 84 78 73 82 81 74 69 77 80 84 88 94 100 100
100 99 100 100 100 100 99 100 98 92 77 71 69 67 65 68 74 76 74 74 81 76 78 77 82 92 94 85 80 74 76 81 75 68 76 78 84 92 87 85 83 85 94
98 96 92 77 61 48 41 41 42 42 44 47 48 47 46 42 46 72 72 77 76 81 82 91 94 85 77 63 61 76 80 63 76 82 86 92 96 84 80 79 79 84 94
42 41 40 39 39 38 38 38 39 40 42 43 43 39 37 40 53 68 71 73 76 80 83 84 79 69 56 72 59 59 68 81 89 90 92 94 94 94 99 98 100 100 100
42 40 38 38 36 33 33 32 32 32 31 33 36 41 46 54 69 72 77 79 82 83 88 74 57 60 69 70 73 77 82 87 96 98 100 99 95 97 99 97 97 100 100
38 39 40 39 43 52 62 69 69 68 70 53 53 59 54 68 70 73 81 80 83 75 68 61 71 77 80 83 88 92 92 93 96 98 100 100 100 100 100 99 100 100 99
37 40 41 42 45 48 50 48 52 58 65 68 70 68 69 71 74 80 81 79 70 69 62 73 80 85 91 97 99 100 100 93 93 94 96 95 98 99 100 100 100 100 96
39 39 37 34 31 30 30 31 33 32 32 32 39 65 70 75 80 82 78 64 51 57 66 75 84 88 94 98 96 97 97 94 95 95 96 96 97 100 100 100 100 99 97
42 40 36 32 30 30 31 32 32 32 36 41 43 45 49 74 81 79 71 58 62 65 67 71 75 83 89 93 94 94 96 96 100 100 98 96 96 100 100 100 100 98 96
41 38 33 33 31 30 30 30 33 37 42 47 51 53 56 74 76 73 63 66 68 67 67 72 74 80 85 87 86 85 91 96 96 95 95 96 97 100 100 100 100 100 98
41 41 32 30 28 27 30 37 39 42 47 51 53 56 75 80 79 68 67 69 72 73 73 75 73 72 77 78 78 78 80 90 93 95 96 96 99 100 100 100 100 100 100
42 40 29 27 27 30 38 38 40 45 50 54 58 61 78 75 68 70 72 71 72 72 73 76 69 65 67 69 72 74 76 87 94 96 98 100 100 100 100 100 100 100 99
38 31 27 27 28 40 39 38 43 50 54 61 66 68 68 70 72 73 72 70 70 69 71 72 69 63 60 60 63 68 74 90 96 98 98 98 100 100 100 100 100 98 97
32 27 26 26 27 32 38 41 51 54 63 66 70 71 71 72 75 73 73 73 72 71 70 68 66 62 59 57 59 66 87 95 98 98 98 98 100 100 100 98 99 97 98
29 26 26 25 26 32 39 47 53 58 64 67 70 73 76 79 79 77 77 76 74 71 64 62 59 58 57 62 74 88 96 97 98 99 98 100 100 100 100 100 99 98 98
28 25 24 24 29 37 45 51 57 63 67 72 80 84 84 82 79 77 75 73 73 68 67 66 64 69 76 82 88 97 95 96 100 100 99 98 100 99 100 99 99 100 98

GFSGL_925_rhum_036.txt.gz
RH
71 67 67 70 77 83 94 98 97 98 99 97 96 96 97 99 99 97 96 93 88 84 77 69 72 72 65 52 45 47 50 57 73 74 58 56 74 86 68 57 59 59 58
74 73 72 74 79 90 99 98 99 99 98 100 97 97 95 96 95 97 95 90 83 80 80 79 70 58 59 64 70 84 88 87 84 94 93 93 89 73 89 74 64 63 60
74 77 78 80 83 87 95 95 94 95 97 98 98 96 94 93 92 93 90 85 76 73 74 70 71 73 88 90 90 88 92 95 98 97 99 95 96 94 96 85 73 61 62
74 76 79 86 88 87 85 87 88 91 90 89 86 85 82 81 78 78 79 82 82 84 78 82 89 90 89 90 94 98 99 98 98 98 86 85 94 96 92 77 63 58 56
77 77 79 81 84 84 86 88 88 86 84 84 83 82 80 78 81 81 82 85 85 87 88 89 90 89 92 98 99 99 98 98 98 95 91 97 92 72 58 58 62 58 57
78 81 81 82 86 90 90 93 94 94 94 85 85 90 85 87 97 87 81 83 86 89 95 100 100 99 98 99 98 98 95 99 99 96 93 77 57 57 60 60 62 66 68
90 95 92 92 96 100 100 98 95 94 92 96 99 99 99 99 100 92 89 93 97 99 98 98 98 98 96 83 88 92 96 99 96 80 73 62 61 63 72 84 74 76 81
99 97 97 98 100 99 99 100 99 99 99 100 100 100 100 100 100 99 99 99 98 99 99 92 89 88 78 77 89 88 84 81 74 73 72 70 70 69 69 84 88 84 70
99 100 100 100 99 99 99 99 100 99 100 99 100 100 99 99 99 100 98 98 93 69 91 95 83 73 63 75 72 80 76 71 76 81 80 80 84 83 82 75 75 76 76
99 100 100 100 100 100 100 100 100 99 99 99 98 98 98 98 97 66 59 74 80 73 70 71 60 66 74 76 75 77 77 73 67 68 66 67 66 60 70 79 78 85 86
99 99 99 99 99 99 98 99 99 98 98 98 98 96 95 98 98 76 63 59 59 62 61 57 60 76 88 90 88 80 74 69 63 73 63 53 57 64 68 73 79 91 97
99 99 100 100 100 99 95 99 96 85 71 62 59 61 67 74 76 77 78 78 72 59 63 64 71 90 94 87 83 75 74 77 70 55 53 60 64 78 89 94 98 100 100
82 74 63 55 50 44 42 42 42 42 42 41 44 45 45 46 66 74 76 78 77 72 76 84 92 84 80 69 66 75 80 62 55 62 66 74 84 92 100 100 100 100 100
43 42 40 39 39 40 41 41 40 39 38 37 36 36 39 45 57 65 69 69 74 75 81 82 77 70 54 55 60 60 61 63 70 74 75 77 80 85 89 93 97 96 96
42 41 42 38 35 34 37 35 34 36 33 32 37 39 40 45 61 71 73 70 71 74 85 69 53 51 54 55 59 65 70 74 79 86 88 87 84 82 88 91 96 98 98
37 40 41 44 50 54 57 58 71 71 68 52 53 56 53 66 70 72 80 81 84 74 64 47 48 55 59 62 69 75 81 87 89 97 99 99 99 99 98 98 97 94 91
41 44 47 47 47 48 51 46 47 61 65 66 65 67 70 74 76 79 83 80 73 69 51 50 60 65 72 80 87 93 94 95 100 100 100 100 100 100 100 99 96 95 93
43 43 41 39 35 34 32 32 31 28 26 30 38 59 69 75 79 82 79 71 50 55 58 58 68 73 80 88 95 98 99 100 100 100 100 100 100 100 100 98 96 96 97
48 44 40 37 34 32 34 35 34 34 34 37 43 44 50 59 82 81 74 59 57 58 59 63 70 78 86 94 98 100 100 100 100 100 100 100 100 100 99 98 98 96 96
43 38 36 38 40 35 36 36 34 35 37 40 43 46 54 66 69 67 63 62 64 65 66 70 75 82 90 97 100 100 99 96 96 100 100 100 100 100 100 99 98 97 96
45 47 36 31 34 34 35 37 38 39 40 43 47 55 75 73 72 63 62 65 67 70 74 78 81 88 94 98 99 98 98 97 97 100 100 100 100 100 100 100 99 98 97
44 45 36 34 34 34 40 40 41 44 46 49 52 59 74 67 62 64 67 70 70 73 79 86 91 92 94 95 92 93 96 94 90 95 100 100 100 100 100 98 96 96 96
42 39 30 30 33 43 51 42 43 48 49 54 60 61 62 63 65 70 74 74 76 82 88 88 86 74 69 67 66 70 79 68 68 91 98 100 100 100 99 98 97 96 95
40 34 29 31 32 37 40 41 49 50 56 58 62 65 67 69 72 75 81 88 88 77 77 76 71 63 59 58 59 63 68 76 91 98 99 97 99 100 100 100 98 97 97
37 30 28 30 31 45 40 46 50 54 60 65 68 72 75 81 84 89 92 91 80 76 71 68 66 63 63 66 71 78 85 94 99 98 97 99 100 99 99 99 99 98 97
34 29 27 27 28 32 42 48 53 61 68 76 84 92 94 95 96 99 100 96 93 92 86 82 78 79 81 82 85 92 95 96 100 100 98 97 98 99 100 99 98 99 95